"Pseudo-MPEC" for P10NCOO

Created 2019 May 27 14:07:19 UT using Find_Orb

Click here for an explanation of pseudo-MPECs

 
 Astrometry: 
     P10NCOO  C2019 05 087j7/;DGu:#kjy3_i@yriZAstrometryCBCOwle=`iT*'cF%dA@gfF51
     P10NCOO  C2019 05 080ATI0tI\=]%_T]MsgcTqjqqo6liWYTR3#axYcWDeUq_/^c/l5';%F51
     P10NCOO  C2019 05 08s_\,9isp+[w^:`;2^[hUtwmv;#B**7c#vy05h),t]X2wMy\bAk\_F51
     P10NCOO KC2019 05 0923bTqFlZIhZ3Xqvi!.R6!hxBZ[:?m([S'H4*6HH$ifUXAcZty5bR691
     P10NCOO KC2019 05 091v3;ZbP6;W^)bOredacted;QZw0#e[_Np3(+PZqLGwh[_rrTP0^l691
     P10NCOO KC2019 05 099iky)/dHm4\Ot2/k^0Bk[y=5)(MuA=Uf8u[VDNkZ#eFf0*P,eugd691
     P10NCOO  C2019 05 26mVmu*Bp!w]qi2RE0Z6j7U6Weu-q`]8JPIq%-9u.j2%YE2XUlo^J6F51
     P10NCOO  C2019 05 26;j1#aK`Tu6#Fclick;09jr]#QpHcOW0DWherenHnc8YfT+L.Zbe'F51
     P10NCOO  C2019 05 26WOtH!XKRNM#*!bN$07i$JNP2cmwD$L'vwZ%$P\/V^q*b'uXJy)S*F51
     P10NCOO  C2019 05 26;Qm`UsX(!UY54^epmu.YpyT)I.fV8'rCN2xHkZ#:84RW*yR9=ecpF51
     P10NCOO KC2019 05 26?lsMXP?:bh5;jZumZi_nuRtHEk3/aSU[ZheT\gpJV1o6aJ*rrKTAA17
     P10NCOO KC2019 05 26JTfor3;aiPB1;Pm]F=92f*M)T1+'k#,FxVSj;n3ljD-@7DA.^SuBA17
     P10NCOO KC2019 05 26Z$PkcW]@c]?@]Ldx@wD1ARQ2PL@4Y;09sa_6BW(YPexplanationA17
     P10NCOO KC2019 05 27.06890416 35 04.50 -10 01 16.4    ~5R27 19.0 GVNEOCPJ95
     P10NCOO KC2019 05 27.07230216 35 11.70 -10 01 28.8    ~5R27 18.6 GVNEOCPJ95
     P10NCOO KC2019 05 27.07741416 35 22.54 -10 01 48.1    ~5R27 18.6 GVNEOCPJ95
     P10NCOO  C2019 05 27.39332 16 47 07.38 -10 19 58.1    ~5R9q 19.5 GVNEOCPI52
     P10NCOO  C2019 05 27.39357 16 47 07.93 -10 19 58.8    ~5R9q 20.5 GVNEOCPI52
     P10NCOO  C2019 05 27.39370 16 47 08.18 -10 19 59.9    ~5R9q 19.4 GVNEOCPI52

Station data:
(691) Steward Observatory, Kitt Peak - Spacewatch  (N31.962174 W111.600327)
   US/Arizona.  Observer J. V. Scotti. 0.9-m f/3 reflector + CCD.
(A17) Guidestar Observatory, Weinheim  (N49.545393 E8.681520)  Germany.
(F51) Pan-STARRS 1, Haleakala  (N20.707235 W156.255910)  US/Hawaii.
   Observers N. Primak, A. Schultz, S. Watters, J. Thiel, T. Goggia. Measurer
   PS1 Science Consortium. 1.8-m Ritchey-Chrétien + CCD.
(I52) Steward Observatory, Mt. Lemmon Station  (N32.442547 W110.788920)
   US/Arizona.  Observers T. A. Pruyne, B. M. Africano, E. J. Christensen, G.
   A. Farneth, D. C. Fuls, A. R. Gibbs, A. D. Grauer, H. Groeller, J. A.
   Johnson, R. A. Kowalski, S. M. Larson, G. J. Leonard, R. L. Seaman, F. C.
   Shelly. 1.0-m reflector + CCD.
(J95) Great Shefford  (N51.474969 W1.447003)  UK.  Observer P. Birtwhistle.
   0.40-m f/6.0 Schmidt-Cassegrain + CCD.

Orbital elements:  P10NCOO
   Perihelion 2019 Jun 3.623486 +/- 0.000484 TT = 14:57:49 (JD 2458638.123486)
Epoch 2019 May 27.0 TT = JDT 2458630.5   Earth MOID: 0.0184   Ma: 0.0386
M 357.56623106 +/- 0.007            (J2000 ecliptic)          AutoNEOCP
n   0.31924621 +/- 0.00094          Peri.  140.66267 +/- 0.009
a   2.12024255 +/- 0.00416          Node   113.37036 +/- 0.011
e   0.5129807 +/- 0.000942          Incl.    0.37387 +/- 0.00050
P   3.09                   H 26.6   G  0.15   U  8.1  
q 1.03259891 +/- 3.01e-5    Q 3.20788619 +/- 0.00833
From 19 observations 2019 May 8-27; mean residual 0".35
Residuals in arcseconds: 
190508 F51  .84-  .04-    190526 F51  .04+  .17+    190527 J95  .08-  .14+    
190508 F51  .81-  .03-    190526 F51  .16-  .18+    190527 J95  .01-  .23-    
190508 F51  .43-  .06+    190526 F51  .04-  .14+    190527 I52  .25+  .16+    
190509 691  .96+  .09-    190526 A17  .32+  .10-    190527 I52  .44+  .32+    
190509 691  .58+  .08+    190526 A17  .61+  .16+    190527 I52  .01+  .33-    
190509 691  .55+  .06-    190526 A17  .41+  .15+    
190526 F51  .08-  .19+    190527 J95  .13-  .06-    

Ephemerides (geocentric):
Date (UTC) HH   RA              Dec         delta   r     elong  mag " sig PA
---- -- -- --  -------------   -----------  ------ ------ -----  --- ---- ---
2019 05 27 14  16 54 29.908   -10 26 58.75  .02362 1.0361 165.7 19.3 .526  30
2019 05 27 15  16 56 05.861   -10 29 21.10  .02359 1.0361 165.5 19.3 .532  31
2019 05 27 16  16 57 42.068   -10 31 42.06  .02357 1.0360 165.3 19.3 .539  32
2019 05 27 17  16 59 18.523   -10 34 01.57  .02354 1.0360 165.1 19.3 .546  34
2019 05 27 18  17 00 55.215   -10 36 19.62  .02351 1.0360 164.8 19.3 .553  35
2019 05 27 19  17 02 32.137   -10 38 36.16  .02349 1.0359 164.6 19.3 .561  36
2019 05 27 20  17 04 09.278   -10 40 51.17  .02346 1.0359 164.4 19.4 .569  37
2019 05 27 21  17 05 46.631   -10 43 04.62  .02344 1.0358 164.1 19.4 .578  39
2019 05 27 22  17 07 24.185   -10 45 16.47  .02342 1.0358 163.9 19.4 .586  40
2019 05 27 23  17 09 01.931   -10 47 26.69  .02340 1.0358 163.7 19.4 .596  41
2019 05 28 00  17 10 39.859   -10 49 35.26  .02338 1.0357 163.4 19.4 .605  42
2019 05 28 01  17 12 17.960   -10 51 42.15  .02336 1.0357 163.1 19.4 .615  43
2019 05 28 02  17 13 56.224   -10 53 47.33  .02335 1.0356 162.9 19.4 .626  45
2019 05 28 03  17 15 34.642   -10 55 50.78  .02333 1.0356 162.6 19.4 .636  46
2019 05 28 04  17 17 13.202   -10 57 52.46  .02332 1.0356 162.4 19.4 .647  47
2019 05 28 05  17 18 51.896   -10 59 52.35  .02330 1.0355 162.1 19.4 .659  48
2019 05 28 06  17 20 30.713   -11 01 50.42  .02329 1.0355 161.8 19.4 .671  49
2019 05 28 07  17 22 09.643   -11 03 46.66  .02328 1.0354 161.5 19.4 .683  50
2019 05 28 08  17 23 48.675   -11 05 41.03  .02327 1.0354 161.3 19.4 .695  51
2019 05 28 09  17 25 27.799   -11 07 33.52  .02326 1.0354 161.0 19.4 .708  52
2019 05 28 10  17 27 07.005   -11 09 24.10  .02325 1.0353 160.7 19.5 .720  52
2019 05 28 11  17 28 46.282   -11 11 12.75  .02325 1.0353 160.4 19.5 .734  53
2019 05 28 12  17 30 25.620   -11 12 59.46  .02324 1.0353 160.1 19.5 .747  54
2019 05 28 13  17 32 05.008   -11 14 44.19  .02324 1.0352 159.8 19.5 .761  55
2019 05 28 14  17 33 44.436   -11 16 26.95  .02324 1.0352 159.5 19.5 .775  56
2019 05 28 15  17 35 23.893   -11 18 07.70  .02324 1.0352 159.2 19.5 .789  57
2019 05 28 16  17 37 03.369   -11 19 46.43  .02324 1.0351 158.9 19.5 .804  57
2019 05 28 17  17 38 42.852   -11 21 23.12  .02324 1.0351 158.6 19.5 .819  58
2019 05 28 18  17 40 22.333   -11 22 57.77  .02324 1.0350 158.3 19.5 .834  59
2019 05 28 19  17 42 01.800   -11 24 30.35  .02324 1.0350 158.0 19.5 .849  59
2019 05 28 20  17 43 41.243   -11 26 00.86  .02325 1.0350 157.7 19.5 .864  60
2019 05 28 21  17 45 20.652   -11 27 29.28  .02325 1.0349 157.4 19.6 .880  61
2019 05 28 22  17 47 00.015   -11 28 55.61  .02326 1.0349 157.1 19.6 .896  61
2019 05 28 23  17 48 39.323   -11 30 19.82  .02327 1.0349 156.8 19.6 .912  62
2019 05 29 00  17 50 18.564   -11 31 41.93  .02328 1.0348 156.5 19.6 .928  62
2019 05 29 01  17 51 57.728   -11 33 01.90  .02329 1.0348 156.1 19.6 .944  63
2019 05 29 02  17 53 36.806   -11 34 19.75  .02330 1.0348 155.8 19.6 .961  64
2019 05 29 03  17 55 15.785   -11 35 35.47  .02331 1.0347 155.5 19.6 .978  64
2019 05 29 04  17 56 54.657   -11 36 49.04  .02333 1.0347 155.2 19.6 0.99  65
2019 05 29 05  17 58 33.411   -11 38 00.47  .02334 1.0347 154.9 19.6 1.01  65
2019 05 29 06  18 00 12.037   -11 39 09.76  .02336 1.0346 154.6 19.6 1.03  65
2019 05 29 07  18 01 50.524   -11 40 16.90  .02337 1.0346 154.2 19.7 1.05  66
2019 05 29 08  18 03 28.863   -11 41 21.89  .02339 1.0346 153.9 19.7 1.06  66
2019 05 29 09  18 05 07.043   -11 42 24.74  .02341 1.0346 153.6 19.7 1.08  67
2019 05 29 10  18 06 45.056   -11 43 25.44  .02343 1.0345 153.3 19.7 1.10  67
2019 05 29 11  18 08 22.891   -11 44 24.00  .02346 1.0345 153.0 19.7 1.12  68
2019 05 29 12  18 10 00.538   -11 45 20.42  .02348 1.0345 152.6 19.7 1.13  68
2019 05 29 13  18 11 37.988   -11 46 14.70  .02350 1.0344 152.3 19.7 1.15  68